Omaha Millard, NE

12:15 AM CST on December 12, 2017 (GMT -0600)
Millard Municipal

Weather History for KMLE - January, 2014

Change the Weather History Date:

Saturday, January 18, 2014

  Actual Average (KOFF) Record (KOFF)
Temperature  
Mean Temperature 30 °F -  
Max Temperature 42 °F 31 °F 57 °F (2015)
Min Temperature 18 °F 14 °F -2 °F (1997)
Degree Days  
Heating Degree Days 35    
Moisture  
Dew Point 19 °F    
Average Humidity 61    
Maximum Humidity 84    
Minimum Humidity 45    
Precipitation  
Precipitation 0.00 in - - ()
Sea Level Pressure  
Sea Level Pressure 29.85 in    
Wind  
Wind Speed 12 mph (WNW)    
Max Wind Speed 33 mph    
Max Gust Speed 53 mph    
Visibility 10 miles    
Events Rain    
Averages and records for this station are not official NWS values.
T = Trace of Precipitation, MM = Missing Value Source: NWS Daily Summary

Daily Weather History Graph

Daily Weather History Graph

Search for Another Location

Airport or City:

Trip Planner

Search our weather history database for the weather conditions in past years. The results will help you decide how hot, cold, wet, or windy it might be!

Date:

Astronomy

Jan. 18, 2014 Rise Set
Actual Time 7:46 AM CST 5:24 PM CST
Civil Twilight 7:16 AM CST 5:54 PM CST
Nautical Twilight 6:42 AM CST 6:28 PM CST
Astronomical Twilight 6:09 AM CST 7:00 PM CST
Moon 8:09 PM CST (1/18) 8:44 AM CST (1/18)
Length of Visible Light 10h 38m
Length of Day
9h 37m
Waning Gibbous, 94% of the Moon is Illuminated
Jan 18
Waning Gibbous
Jan 23
Last Quarter
Jan 30
New
Feb 6
First Quarter
Feb 14
Full

Hourly Weather History & Observations

Time (CST) Temp. Windchill Dew Point Humidity Pressure Visibility Wind Dir Wind Speed Gust Speed Precip Events Conditions
12:15 AM 32.2 °F 27.7 °F 14.5 °F 48% 29.81 in 10.0 mi South 4.6 mph - N/A   Overcast
12:35 AM 32.9 °F 25.9 °F 14.9 °F 48% 29.78 in 10.0 mi South 8.1 mph - N/A   Overcast
12:55 AM 32.9 °F 27.5 °F 14.9 °F 48% 29.76 in 10.0 mi South 5.8 mph - N/A   Mostly Cloudy
1:15 AM 32.9 °F 27.5 °F 14.9 °F 48% 29.74 in 10.0 mi South 5.8 mph - N/A   Scattered Clouds
1:35 AM 33.6 °F 26.2 °F 14.9 °F 46% 29.72 in 10.0 mi SSW 9.2 mph 17.3 mph N/A   Scattered Clouds
1:55 AM 34.2 °F 30.0 °F 15.3 °F 46% 29.71 in 10.0 mi SSW 4.6 mph - N/A   Scattered Clouds
2:15 AM 34.5 °F 27.3 °F 15.6 °F 46% 29.71 in 10.0 mi SW 9.2 mph - N/A   Scattered Clouds
2:35 AM 35.1 °F 26.9 °F 15.8 °F 45% 29.70 in 10.0 mi SW 11.5 mph 17.3 mph N/A   Overcast
2:55 AM 35.6 °F 29.2 °F 16.2 °F 45% 29.69 in 10.0 mi WSW 8.1 mph 18.4 mph N/A   Overcast
3:15 AM 35.8 °F 28.3 °F 16.5 °F 46% 29.69 in 10.0 mi West 10.4 mph 18.4 mph N/A   Overcast
3:35 AM 36.0 °F 29.0 °F 17.1 °F 46% 29.68 in 10.0 mi West 9.2 mph 16.1 mph N/A   Mostly Cloudy
3:55 AM 35.6 °F 29.9 °F 17.6 °F 48% 29.67 in 10.0 mi WSW 6.9 mph - N/A   Mostly Cloudy
4:15 AM 36.0 °F 32.1 °F 18.1 °F 48% 29.67 in 10.0 mi WNW 4.6 mph - N/A   Overcast
4:35 AM 37.4 °F 32.8 °F 19.2 °F 48% 29.66 in 10.0 mi West 5.8 mph - N/A   Overcast
4:55 AM 37.4 °F 33.8 °F 19.4 °F 48% 29.65 in 10.0 mi West 4.6 mph - N/A   Overcast
5:15 AM 38.3 °F 31.9 °F 21.2 °F 50% 29.65 in 10.0 mi NW 9.2 mph - N/A   Overcast
5:35 AM 39.9 °F 32.5 °F 23.0 °F 51% 29.65 in 10.0 mi WNW 12.7 mph 18.4 mph N/A   Overcast
5:55 AM 42.6 °F 35.6 °F 25.5 °F 51% 29.64 in 10.0 mi WNW 13.8 mph 27.6 mph N/A   Mostly Cloudy
6:15 AM 41.4 °F 34.7 °F 26.1 °F 55% 29.64 in 10.0 mi WNW 11.5 mph 17.3 mph N/A   Scattered Clouds
6:35 AM 41.0 °F 34.7 °F 26.1 °F 55% 29.65 in 10.0 mi WNW 10.4 mph 16.1 mph N/A   Scattered Clouds
6:55 AM 41.0 °F 34.3 °F 26.4 °F 56% 29.65 in 10.0 mi WNW 11.5 mph 17.3 mph N/A   Mostly Cloudy
7:15 AM 42.1 °F 34.9 °F 27.3 °F 56% 29.64 in 10.0 mi WNW 13.8 mph 25.3 mph N/A   Mostly Cloudy
7:35 AM 41.9 °F 33.7 °F 27.3 °F 56% 29.65 in 10.0 mi WNW 17.3 mph 20.7 mph N/A   Overcast
7:55 AM 41.9 °F 34.3 °F 27.5 °F 57% 29.65 in 10.0 mi WNW 15.0 mph 24.2 mph N/A   Overcast
8:15 AM 39.2 °F 29.8 °F 31.6 °F 74% 29.67 in 10.0 mi NW 18.4 mph 31.1 mph N/A Rain Light Rain
8:35 AM 39.6 °F 32.1 °F 31.6 °F 73% 29.66 in 10.0 mi NW 12.7 mph 21.9 mph N/A   Overcast
8:55 AM 40.1 °F 31.0 °F 30.9 °F 70% 29.67 in 10.0 mi WNW 18.4 mph 27.6 mph N/A   Overcast
9:15 AM 41.4 °F 32.1 °F 29.7 °F 63% 29.67 in 10.0 mi WNW 20.7 mph 28.8 mph N/A   Overcast
9:35 AM 41.5 °F 32.9 °F 29.3 °F 62% 29.67 in 10.0 mi WNW 18.4 mph 33.4 mph N/A   Light Drizzle
9:55 AM 42.3 °F 31.0 °F 27.5 °F 56% 29.68 in 10.0 mi WNW 33.4 mph 52.9 mph N/A   Overcast
10:15 AM 41.0 °F 30.5 °F 29.5 °F 64% 29.70 in 10.0 mi WNW 26.5 mph 41.4 mph N/A   Overcast
10:35 AM 41.0 °F 29.8 °F 29.1 °F 63% 29.71 in 10.0 mi NW 29.9 mph 41.4 mph N/A   Overcast
10:55 AM 40.5 °F 29.5 °F 27.5 °F 60% 29.73 in 10.0 mi NNW 27.6 mph 38.0 mph N/A   Overcast
11:15 AM 37.9 °F 25.1 °F 24.8 °F 59% 29.75 in 10.0 mi NW 33.4 mph 48.3 mph N/A   Overcast
11:35 AM 36.9 °F 24.7 °F 22.1 °F 55% 29.78 in 10.0 mi NNW 27.6 mph 42.6 mph N/A   Overcast
11:55 AM 34.9 °F 22.0 °F 21.2 °F 57% 29.78 in 10.0 mi NW 27.6 mph 42.6 mph N/A   Overcast
12:15 PM 34.0 °F 20.1 °F 21.0 °F 59% 29.79 in 10.0 mi NNW 31.1 mph 42.6 mph N/A   Overcast
12:35 PM 33.8 °F 19.6 °F 19.8 °F 56% 29.79 in 10.0 mi NW 32.2 mph 41.4 mph N/A   Overcast
12:55 PM 32.9 °F 20.7 °F 19.2 °F 57% 29.82 in 10.0 mi NNW 21.9 mph 42.6 mph N/A   Mostly Cloudy
1:15 PM 30.9 °F 17.2 °F 17.4 °F 57% 29.84 in 10.0 mi NW 25.3 mph 43.7 mph N/A   Overcast
1:35 PM 29.3 °F 14.5 °F 16.5 °F 59% 29.86 in 10.0 mi NNW 27.6 mph 36.8 mph N/A   Overcast
1:55 PM 27.9 °F 13.1 °F 15.8 °F 61% 29.88 in 10.0 mi NNW 25.3 mph 39.1 mph N/A   Overcast
2:15 PM 27.5 °F 12.9 °F 15.6 °F 61% 29.90 in 10.0 mi NW 24.2 mph 36.8 mph N/A   Overcast
2:35 PM 27.3 °F 11.8 °F 15.6 °F 61% 29.92 in 10.0 mi NNW 27.6 mph 36.8 mph N/A   Overcast
2:55 PM 28.2 °F 16.3 °F 15.3 °F 58% 29.93 in 10.0 mi NNW 16.1 mph 36.8 mph N/A   Overcast
3:15 PM 28.2 °F 15.2 °F 15.1 °F 58% 29.96 in 10.0 mi North 19.6 mph 32.2 mph N/A   Overcast
3:35 PM 27.9 °F 13.4 °F 14.9 °F 58% 29.97 in 10.0 mi NNW 24.2 mph 33.4 mph N/A   Mostly Cloudy
3:55 PM 28.0 °F 14.6 °F 15.3 °F 59% 29.98 in 10.0 mi NNW 20.7 mph 31.1 mph N/A   Scattered Clouds
4:15 PM 28.2 °F 14.8 °F 15.6 °F 59% 30.01 in 10.0 mi NNW 20.7 mph 27.6 mph N/A   Clear
4:35 PM 28.0 °F 15.7 °F 15.4 °F 59% 30.03 in 10.0 mi NNW 17.3 mph 24.2 mph N/A   Clear
4:55 PM 27.5 °F 18.0 °F 15.3 °F 60% 30.04 in 10.0 mi NNW 10.4 mph 21.9 mph N/A   Clear
5:15 PM 27.3 °F 15.6 °F 15.3 °F 61% 30.05 in 10.0 mi NNW 15.0 mph 19.6 mph N/A   Clear
5:35 PM 26.6 °F 15.2 °F 15.4 °F 63% 30.06 in 10.0 mi NNW 13.8 mph 21.9 mph N/A   Clear
5:55 PM 26.2 °F 15.2 °F 15.6 °F 64% 30.06 in 10.0 mi NW 12.7 mph 26.5 mph N/A   Clear
6:15 PM 25.7 °F 16.4 °F 15.6 °F 66% 30.07 in 10.0 mi NW 9.2 mph 17.3 mph N/A   Clear
6:35 PM 25.2 °F 14.4 °F 15.8 °F 68% 30.08 in 10.0 mi NW 11.5 mph 17.3 mph N/A   Clear
6:55 PM 24.6 °F 13.8 °F 15.6 °F 69% 30.09 in 10.0 mi NW 11.5 mph - N/A   Clear
7:15 PM 24.3 °F 15.4 °F 15.8 °F 70% 30.08 in 10.0 mi NW 8.1 mph - N/A   Clear
7:35 PM 22.8 °F 14.5 °F 15.1 °F 72% 30.08 in 10.0 mi NW 6.9 mph - N/A   Clear
7:55 PM 22.1 °F 14.7 °F 15.3 °F 75% 30.08 in 10.0 mi NW 5.8 mph - N/A   Clear
8:15 PM 22.3 °F 17.6 °F 15.3 °F 74% 30.08 in 10.0 mi NW 3.5 mph - N/A   Clear
8:35 PM 21.9 °F - 15.3 °F 76% 30.07 in 10.0 mi Calm Calm - N/A   Clear
8:55 PM 21.7 °F - 15.1 °F 76% 30.08 in 10.0 mi Calm Calm - N/A   Clear
9:15 PM 21.7 °F - 15.4 °F 77% 30.08 in 10.0 mi Calm Calm - N/A   Clear
9:35 PM 19.8 °F - 14.7 °F 81% 30.07 in 10.0 mi Calm Calm - N/A   Clear
9:55 PM 18.5 °F - 14.4 °F 84% 30.08 in 10.0 mi Calm Calm - N/A   Clear
10:15 PM 19.8 °F - 15.1 °F 82% 30.07 in 10.0 mi Calm Calm - N/A   Clear
10:35 PM 19.9 °F - 14.7 °F 80% 30.07 in 10.0 mi Calm Calm - N/A   Clear
10:55 PM 20.1 °F - 14.5 °F 79% 30.06 in 10.0 mi Calm Calm - N/A   Clear
11:15 PM 19.8 °F - 14.5 °F 80% 30.05 in 10.0 mi Calm Calm - N/A   Clear
11:35 PM 20.3 °F - 14.9 °F 80% 30.03 in 10.0 mi Calm Calm - N/A   Clear
11:55 PM 20.7 °F - 15.1 °F 79% 30.03 in 10.0 mi Calm Calm - N/A   Clear